Regional Weather Roundup
Issued by NWS

Home | Current Version | Previous Version | Text Only | Print | Product List | Glossary On
Versions: 1 2 3 4 5 6 7 8 9 10 11 12 13 14 15 16 17 18 19 20 21 22 23 24 25 26 27 28 29 30 31 32 33 34 35 36 37 38 39 40 41 42 43 44 45 46 47 48 49 50
000
ASUS45 KABQ 170901
RWRNM
NEW MEXICO REGIONAL WEATHER ROUNDUP
NATIONAL WEATHER SERVICE ALBUQUERQUE NM
300 AM MDT MON JUN 17 2019

NOTE: "FAIR" MEANS FEW OR NO CLOUDS BELOW 12,000 FEET AGL WITH NO
       SIGNIFICANT WEATHER OR OBSTRUCTIONS TO VISION.

      THIS PRODUCT IS RELEASED AS TWO VERSIONS.  ONE VERSION NEAR
      THE TOP OF THE HOUR CONTAINING PRELIMINARY DATA FROM ALBUQUERQUE
      AND OTHER STATIONS.  A FINAL VERSION WITH ADDITIONAL DATA IS
      ISSUED ABOUT 10 MINUTES AFTER THE HOUR.

NMZ501-503-504-510>518-171000-
NORTHWEST PLATEAU/NORTHCENTRAL MOUNTAINS

CITY           SKY/WX    TMP DP  RH WIND       PRES   REMARKS
FARMINGTON     FAIR      65  42  43 E6        30.02F
LOS ALAMOS       N/A     59  47  63 SW7       30.19F
SANTA FE       MOCLDY    62  47  57 S9        30.13F
TAOS           CLOUDY    54  50  86 NW5       30.20R
ANGEL FIRE       N/A     47  46  96 CALM      30.28S

$$
NMZ402-403-502-505>509-171000-
WESTCENTRAL MOUNTAINS/SOUTHWEST MOUNTAINS

CITY           SKY/WX    TMP DP  RH WIND       PRES   REMARKS
GALLUP         FAIR      53  41  63 CALM      30.12F
GRANTS         CLOUDY    59  42  52 NW6       30.15S
SILVER CITY    FAIR      70  28  21 N7        30.03S

$$
NMZ407-409-411-412-171000-
SOUTHERN DESERTS

CITY           SKY/WX    TMP DP  RH WIND       PRES   REMARKS
DEMING         FAIR      63  29  27 NW3       29.97S
LAS CRUCES     FAIR      74  23  15 W16       29.97S
HOLLOMAN AFB   FAIR      76  46  33 S10       29.94S
ALAMOGORDO     FAIR      70  41  35 S6        29.94R
T OR C         FAIR      72  22  15 W5        29.96R

$$
NMZ519>523-171000-
CENTRAL VALLEYS/CENTRAL HIGHLANDS

CITY           SKY/WX    TMP DP  RH WIND       PRES   REMARKS
ALBUQUERQUE    CLOUDY    69  48  47 E23G29    30.04R
DOUBLE EAGLE   CLOUDY    66  46  49 N7        30.09R
MORIARTY ARPT  CLOUDY    61  55  79 SE5       30.16F
CLINES CORNERS MOCLDY    55  49  80 NE10      30.21S
BELEN          FAIR      70  39  31 W7        30.02F
SOCORRO        FAIR      69  40  33 N5        29.98S

$$
NMZ524>526-539-540-171000-
SOUTHCENTRAL MOUNTAINS

CITY           SKY/WX    TMP DP  RH WIND       PRES   REMARKS
RUIDOSO        FAIR      55  45  67 S7        30.20S

$$
NMZ527>531-171000-
NORTHEAST HIGHLANDS/NORTHEAST PLAINS

CITY           SKY/WX    TMP DP  RH WIND       PRES   REMARKS
LAS VEGAS      FAIR      53  50  89 CALM      30.20S
RATON          FAIR      53  48  83 VRB5      30.12F
CLAYTON        FAIR      58  55  90 S7        30.06F

$$
NMZ532>537-171000-
EASTCENTRAL PLAINS

CITY           SKY/WX    TMP DP  RH WIND       PRES   REMARKS
SANTA ROSA     RAIN      61  57  88 NE14      30.05F
TUCUMCARI      MOCLDY    66  55  67 CALM      30.02R
CANNON AFB     NOT AVBL
CLOVIS AIRPORT FAIR      61  57  87 S6        30.06R

$$
NMZ028-029-538-171000-
SOUTHEAST PLAINS

CITY           SKY/WX    TMP DP  RH WIND       PRES   REMARKS
ROSWELL        FAIR      73  55  53 SE8       29.99S
ARTESIA        FAIR      73  59  60 SE3       29.99F
CARLSBAD       FAIR      72  62  71 E5        29.95F
HOBBS          FAIR      68  63  83 E14       30.00F


$$



USA.gov is the U.S. government's official web portal to all federal, state and local government web resources and services.